Weather History for KLVN - February, 2013

Change the Weather History Date:

Tuesday, February 26, 2013

  Actual Average (KMSP) Record (KMSP)
Temperature  
Mean Temperature 20 °F 25 °F  
Max Temperature 33 °F 33 °F 64 °F (1896)
Min Temperature 6 °F 17 °F -21 °F (1897)
Degree Days  
Heating Degree Days 46 40  
Month to date heating degree days 1158  
Since 1 July heating degree days 5712  
Cooling Degree Days 0 0  
Month to date cooling degree days 0  
Year to date cooling degree days 0  
Moisture  
Dew Point 21 °F    
Average Humidity 84    
Maximum Humidity 100    
Minimum Humidity 70    
Precipitation  
Precipitation 0.00 in 0.04 in 0.83 in (1873)
Month to date precipitation 0.69  
Year to date precipitation 1.59  
Snow  
Snow 0.00 in 0.30 in 7.00 in (1936)
Month to date snowfall 7.1  
Since 1 July snowfall 41.1  
Snow Depth -    
Sea Level Pressure  
Sea Level Pressure 29.92 in    
Wind  
Wind Speed 5 mph (NNE)    
Max Wind Speed 14 mph    
Max Gust Speed 20 mph    
Visibility 6 miles    
Events Fog    
T = Trace of Precipitation, MM = Missing Value Source: NWS Daily Summary

Daily Weather History Graph

Daily Weather History Graph

Search for Another Location

Airport or City:

Trip Planner

Search our weather history database for the weather conditions in past years. The results will help you decide how hot, cold, wet, or windy it might be!

Date:

Astronomy

Feb. 26, 2013 Rise Set
Actual Time 6:55 AM CST 5:57 PM CST
Civil Twilight 6:25 AM CST 6:26 PM CST
Nautical Twilight 5:51 AM CST 7:00 PM CST
Astronomical Twilight 5:18 AM CST 7:34 PM CST
Moon 7:19 PM CST (2/26) 6:53 AM CST (2/26)
Length of Visible Light 12h 00m
Length of Day
11h 02m
Full, 99% of the Moon is Illuminated
Feb 26
Full
Mar 4
Last Quarter
Mar 11
New
Mar 19
First Quarter
Mar 27
Full

Hourly Weather History & Observations

Time (CST) Temp. Windchill Dew Point Humidity Pressure Visibility Wind Dir Wind Speed Gust Speed Precip Events Conditions
12:06 AM 6.8 °F - 5.0 °F 92% 30.03 in 0.2 mi Calm Calm - N/A Fog Light Freezing Fog
12:26 AM 12.2 °F - 10.4 °F 92% 30.03 in 1.5 mi Calm Calm - N/A   Mist
12:46 AM 10.4 °F - 10.4 °F 100% 30.03 in 1.2 mi Calm Calm - N/A   Mist
1:06 AM 6.8 °F - 3.2 °F 85% 30.03 in 2.5 mi Calm Calm - N/A   Scattered Clouds
1:26 AM 6.8 °F -3.5 °F 5.0 °F 92% 30.03 in 0.2 mi WNW 5.8 mph - N/A Fog Light Freezing Fog
1:46 AM 6.8 °F - 5.0 °F 92% 30.02 in 0.2 mi Calm Calm - N/A Fog Light Freezing Fog
2:06 AM 8.6 °F - 5.0 °F 85% 30.01 in 0.8 mi Calm Calm - N/A   Mostly Cloudy
2:26 AM 6.8 °F - 3.2 °F 85% 30.02 in 1.8 mi Calm Calm - N/A   Mist
2:46 AM 8.6 °F - 6.8 °F 92% 30.01 in 0.5 mi Calm Calm - N/A Fog Light Freezing Fog
3:06 AM 6.8 °F - 6.8 °F 100% 29.99 in 2.0 mi Calm Calm - N/A   Mostly Cloudy
3:26 AM 10.4 °F - 8.6 °F 92% 30.00 in 0.5 mi Calm Calm - N/A Fog Light Freezing Fog
3:46 AM 10.4 °F - 8.6 °F 92% 29.98 in 2.0 mi Calm Calm - N/A   Overcast
4:05 AM 14.0 °F 8.2 °F 12.2 °F 93% 29.97 in 1.5 mi NNW 3.5 mph - N/A   Mostly Cloudy
4:26 AM 17.6 °F - 17.6 °F 100% 29.97 in 2.5 mi Calm Calm - N/A   Scattered Clouds
4:46 AM 19.4 °F 14.3 °F 19.4 °F 100% 29.97 in 3.0 mi North 3.5 mph - N/A   Mostly Cloudy
5:05 AM 21.2 °F - 21.2 °F 100% 29.97 in 3.0 mi Calm Calm - N/A   Overcast
5:26 AM 21.2 °F 14.9 °F 21.2 °F 100% 29.96 in 3.0 mi North 4.6 mph - N/A   Overcast
5:45 AM 21.2 °F 14.9 °F 21.2 °F 100% 29.96 in 3.0 mi NNE 4.6 mph - N/A   Overcast
6:06 AM 21.2 °F 16.4 °F 21.2 °F 100% 29.97 in 3.0 mi ENE 3.5 mph - N/A   Overcast
6:26 AM 21.2 °F - 21.2 °F 100% 29.97 in 2.5 mi Calm Calm - N/A   Overcast
6:45 AM 21.2 °F 14.9 °F 21.2 °F 100% 29.96 in 2.5 mi NNE 4.6 mph - N/A   Overcast
7:06 AM 21.2 °F 14.9 °F 21.2 °F 100% 29.96 in 3.0 mi NNE 4.6 mph - N/A   Overcast
7:26 AM 21.2 °F - 21.2 °F 100% 29.96 in 2.5 mi Calm Calm - N/A   Overcast
7:45 AM 23.0 °F 18.4 °F 21.2 °F 93% 29.97 in 3.0 mi NE 3.5 mph - N/A   Overcast
8:06 AM 23.0 °F 15.8 °F 21.2 °F 93% 29.96 in 3.0 mi NNE 5.8 mph - N/A   Overcast
8:26 AM 24.8 °F 19.1 °F 23.0 °F 93% 29.96 in 4.0 mi NE 4.6 mph - N/A   Overcast
8:45 AM 24.8 °F 19.1 °F 23.0 °F 93% 29.96 in 4.0 mi NE 4.6 mph - N/A   Overcast
9:06 AM 24.8 °F 17.9 °F 23.0 °F 93% 29.96 in 4.0 mi NNE 5.8 mph - N/A   Overcast
9:26 AM 26.6 °F 20.0 °F 23.0 °F 86% 29.96 in 5.0 mi NE 5.8 mph - N/A   Overcast
9:46 AM 26.6 °F 21.2 °F 23.0 °F 86% 29.97 in 5.0 mi ENE 4.6 mph - N/A   Overcast
10:06 AM 28.4 °F 20.4 °F 23.0 °F 80% 29.96 in 5.0 mi NNE 8.1 mph - N/A   Haze
10:26 AM 28.4 °F 19.7 °F 23.0 °F 80% 29.96 in 5.0 mi NNE 9.2 mph - N/A   Haze
10:46 AM 30.2 °F 22.6 °F 24.8 °F 80% 29.95 in 5.0 mi NE 8.1 mph - N/A   Haze
11:06 AM 30.2 °F 21.9 °F 24.8 °F 80% 29.95 in 7.0 mi NNE 9.2 mph - N/A   Overcast
11:26 AM 32.0 °F 23.6 °F 24.8 °F 75% 29.94 in 7.0 mi NE 10.4 mph - N/A   Scattered Clouds
11:46 AM 33.8 °F 27.0 °F 24.8 °F 70% 29.93 in 7.0 mi NE 8.1 mph - N/A   Clear
12:06 PM 33.8 °F 25.8 °F 24.8 °F 70% 29.92 in 7.0 mi NNE 10.4 mph - N/A   Clear
12:26 PM 33.8 °F 26.4 °F 24.8 °F 70% 29.91 in 7.0 mi NE 9.2 mph - N/A   Clear
12:46 PM 33.8 °F 24.8 °F 24.8 °F 70% 29.90 in 7.0 mi NNE 12.7 mph - N/A   Clear
1:06 PM 33.8 °F 25.3 °F 24.8 °F 70% 29.89 in 7.0 mi NNE 11.5 mph - N/A   Clear
1:26 PM 33.8 °F 25.3 °F 24.8 °F 70% 29.89 in 7.0 mi NE 11.5 mph - N/A   Clear
1:46 PM 33.8 °F 25.8 °F 24.8 °F 70% 29.88 in 7.0 mi North 10.4 mph - N/A   Clear
2:06 PM 33.8 °F 25.8 °F 24.8 °F 70% 29.88 in 7.0 mi NNE 10.4 mph - N/A   Clear
2:26 PM 33.8 °F 25.3 °F 24.8 °F 70% 29.87 in 10.0 mi NNE 11.5 mph - N/A   Scattered Clouds
2:46 PM 33.8 °F 25.3 °F 24.8 °F 70% 29.87 in 10.0 mi NNE 11.5 mph 16.1 mph N/A   Scattered Clouds
3:06 PM 33.8 °F 24.8 °F 26.6 °F 75% 29.87 in 7.0 mi North 12.7 mph - N/A   Overcast
3:26 PM 33.8 °F 26.4 °F 26.6 °F 75% 29.87 in 7.0 mi North 9.2 mph - N/A   Overcast
3:46 PM 33.8 °F 27.0 °F 24.8 °F 70% 29.87 in 7.0 mi North 8.1 mph - N/A   Overcast
4:06 PM 33.8 °F 25.8 °F 24.8 °F 70% 29.87 in 7.0 mi North 10.4 mph - N/A   Scattered Clouds
4:26 PM 32.0 °F 24.8 °F 24.8 °F 75% 29.87 in 7.0 mi North 8.1 mph - N/A   Clear
4:45 PM 32.0 °F 24.2 °F 24.8 °F 75% 29.86 in 10.0 mi North 9.2 mph - N/A   Clear
5:06 PM 32.0 °F 23.6 °F 24.8 °F 75% 29.86 in 10.0 mi North 10.4 mph - N/A   Clear
5:26 PM 32.0 °F 24.2 °F 24.8 °F 75% 29.86 in 10.0 mi North 9.2 mph - N/A   Clear
5:45 PM 32.0 °F 23.6 °F 24.8 °F 75% 29.86 in 10.0 mi North 10.4 mph - N/A   Clear
6:06 PM 32.0 °F 24.2 °F 24.8 °F 75% 29.86 in 10.0 mi NNW 9.2 mph - N/A   Clear
6:25 PM 32.0 °F 24.8 °F 26.6 °F 80% 29.86 in 10.0 mi NNW 8.1 mph - N/A   Clear
6:46 PM 32.0 °F 23.6 °F 24.8 °F 75% 29.86 in 10.0 mi NNW 10.4 mph - N/A   Clear
7:06 PM 32.0 °F 24.2 °F 24.8 °F 75% 29.86 in 10.0 mi NNW 9.2 mph - N/A   Clear
7:26 PM 32.0 °F 24.8 °F 24.8 °F 75% 29.86 in 10.0 mi North 8.1 mph - N/A   Clear
7:46 PM 32.0 °F 23.6 °F 24.8 °F 75% 29.85 in 10.0 mi North 10.4 mph - N/A   Clear
8:06 PM 32.0 °F 24.2 °F 24.8 °F 75% 29.86 in 10.0 mi North 9.2 mph - N/A   Clear
8:26 PM 32.0 °F 23.6 °F 24.8 °F 75% 29.85 in 10.0 mi North 10.4 mph - N/A   Clear
8:46 PM 30.2 °F 20.8 °F 24.8 °F 80% 29.85 in 10.0 mi North 11.5 mph 16.1 mph N/A   Clear
9:06 PM 30.2 °F 19.8 °F 24.8 °F 80% 29.86 in 10.0 mi NNE 13.8 mph - N/A   Clear
9:26 PM 30.2 °F 20.2 °F 24.8 °F 80% 29.85 in 10.0 mi NNE 12.7 mph 19.6 mph N/A   Clear
9:46 PM 30.2 °F 21.3 °F 24.8 °F 80% 29.86 in 10.0 mi NNE 10.4 mph - N/A   Clear
10:06 PM 28.4 °F 18.0 °F 24.8 °F 86% 29.86 in 10.0 mi NNE 12.7 mph - N/A   Clear
10:46 PM 28.4 °F 19.1 °F 24.8 °F 86% 29.86 in 10.0 mi North 10.4 mph - N/A   Clear
11:06 PM 28.4 °F 19.1 °F 24.8 °F 86% 29.85 in 10.0 mi North 10.4 mph - N/A   Clear
11:26 PM 28.4 °F 19.1 °F 23.0 °F 80% 29.85 in 10.0 mi North 10.4 mph - N/A   Clear
11:46 PM 28.4 °F 19.1 °F 23.0 °F 80% 29.85 in 10.0 mi North 10.4 mph - N/A   Clear